Terminal Aerodrome Forecast
Issued by NWS Shreveport, LA

Home | Current Version | Previous Version | Text Only | Print | Product List | Glossary On
Versions: 1 2 3 4 5 6 7 8 9 10 11 12 13 14 15 16 17 18 19 20
000
FTUS44 KSHV 240200 AAB
TAFMLU
TAF AMD
KMLU 240250Z 2403/2424 VRB03KT P6SM VCSH OVC100
     FM240400 36007KT P6SM FEW050 SCT250
     FM240800 20002KT 4SM BR SKC
     FM241500 25004KT P6SM SCT030=

USA.gov is the U.S. government's official web portal to all federal, state and local government web resources and services.